Location: Grand Lay
(47.3253°N, 0.9468°E)
Time: 17:43:54
(UTC+00:00)

Atlas Centaur 2 - Pass Details

Date: 18 January 2026
Orbit: 456 x 1249 km, 30.4° (Epoch: 16 February)

Event Time Altitude Azimuth Distance (km) Brightness Sun altitude
Exits shadow 05:19:43 - 202° (SSW) 2,349 4.4 -22.8°
Reaches altitude 10° 05:20:05 10° 198° (SSW) 2,296 4.3 -22.7°
Maximum altitude 05:22:43 14° 170° (S) 2,181 4.5 -22.2°
Drops below altitude 10° 05:25:35 10° 141° (SE) 2,569 5.3 -21.8°
Sets 05:29:54 0° 118° (ESE) 3,714 6.8 -21.0°
